Regional Weather Roundup
Issued by NWS Cleveland, OH

Home | Current Version | Previous Version | Text Only | Print | Product List | Glossary Off
Versions: 1 2 3 4 5 6 7 8 9 10 11 12 13 14 15 16 17 18 19 20 21 22 23 24 25 26 27 28 29 30 31 32 33 34 35 36 37 38 39 40 41 42 43 44 45 46 47 48 49 50

000
ASUS41 KCLE 292312
RWRCLE
OHIO REGIONAL WEATHER ROUNDUP
NATIONAL WEATHER SERVICE WILMINGTON, OH
700 PM EDT MON MAY 29 2017

NOTE: "FAIR" INDICATES FEW OR NO CLOUDS BELOW 12,000 FEET WITH NO
SIGNIFICANT WEATHER AND/OR OBSTRUCTIONS TO VISIBILITY.

OHZ001>008-015>018-024>027-034-035-043-044-300000-
   NORTHWEST OHIO

CITY           SKY/WX    TMP DP  RH WIND       PRES   REMARKS
DEFIANCE       CLOUDY    72  51  47 SW7       29.84F
FINDLAY        FAIR      77  50  38 W14       29.85F
TOLEDO EXPRESS FAIR      71  58  63 SW12G21   29.84S
TOLEDO EXEC    FAIR      71  59  65 NW6       29.85F
LIMA           FAIR      75  49  39 W13       29.87S
$$

OHZ009>014-019>023-028>033-038-089-300000-
   NORTHEAST OHIO

CITY           SKY/WX    TMP DP  RH WIND       PRES   REMARKS
CLE-HOPKINS    FAIR      79  52  38 SW13      29.86F
CLE-LAKEFRONT  FAIR      76  50  40 SW15      29.84F
CUY CO. ARPT   MOSUNNY   79  48  34 W15       29.86F
LORAIN-ELYRIA  FAIR      76  48  37 W10       29.86F
ASHTABULA      LGT RAIN  67  63  87 S6        29.89F FOG
AKRON-CANTON   FAIR      74  51  44 SW16      29.91F
WOOSTER        FAIR      74  55  51 SW10      29.90F
MANSFIELD      FAIR      76  56  49 S14       29.89F
YOUNGSTOWN     PTSUNNY   75  51  43 SW18G35   29.91R
$$

OHZ042-051>053-060>062-070>072-077>081-300000-
  SOUTHWEST OHIO

CITY           SKY/WX    TMP DP  RH WIND       PRES   REMARKS
CINC-COVINGTON PTSUNNY   79  51  37 SW7       29.92R
CINC-LUNKEN    FAIR      79  56  45 SW9       29.91S
HAMILTON       PTSUNNY   78  54  43 SW7       29.91S
DAYTON         PTSUNNY   74  54  49 SW9       29.91F
WRIGHT-PAT AFB PTSUNNY   77  56  48 SW8       29.90F
DAYTON GENERAL CLOUDY    77  51  40 SW6       29.90F
WILMINGTON     FAIR      76  54  46 SW12      29.91S
$$

OHZ036-037-039>041-045>050-054>059-063>069-073>076-082>088-300000-
  CENTRAL AND SOUTHEAST OHIO

CITY           SKY/WX    TMP DP  RH WIND       PRES   REMARKS
COLUMBUS       PTSUNNY   78  52  40 SW15      29.89F
OSU AIRPORT    CLOUDY    77  53  43 SW14      29.89F
BOLTON FIELD   MOSUNNY   77  54  44 W12       29.91F
RICKENBACK AFB FAIR      79  52  38 SW12      29.90S
NEWARK         FAIR      75  52  44 SW9       29.90F
MARION         FAIR      78  48  34 SW13      29.88F
LANCASTER      FAIR      79  52  38 SW9       29.92F
ZANESVILLE     FAIR      77  53  43 VRB5      29.91F
NEW PHILLY     PTSUNNY   66  62  87 SE5       29.93F
$$




USA.gov is the U.S. government's official web portal to all federal, state and local government web resources and services.